This is the latest recevied weather packets stored in our database for station/object KJ6HT. If no packets are shown the sender has not sent any weather packets the latest 10 day(s).
| Time | Temp. | Humidity | Pressure | Rain* | Wind** | Luminosity | Snow |
|---|---|---|---|---|---|---|---|
| 1777264300 | 12.78° C | 74% | 1014.7 hPa | 0 mm | - | - | - |
| 1777263349 | 13.33° C | 72% | 1014.5 hPa | 0 mm | - | - | - |
| 1777262487 | 13.33° C | 70% | 1014.4 hPa | 0 mm | - | - | - |
| 1777261546 | 13.89° C | 70% | 1014.2 hPa | 0 mm | - | - | - |
| 1777260690 | 13.89° C | 69% | 1014.2 hPa | 0 mm | - | - | - |
| 1777259740 | 13.89° C | 67% | 1014 hPa | 0 mm | - | - | - |
| 1777258893 | 14.44° C | 65% | 1013.9 hPa | 0 mm | - | - | - |
| 1777257940 | 14.44° C | 63% | 1013.8 hPa | 0 mm | - | - | - |
| 1777257097 | 15° C | 61% | 1013.6 hPa | 0 mm | - | - | - |
| 1777256152 | 15.56° C | 58% | 1013.7 hPa | 0 mm | - | - | - |
| 1777255234 | 15.56° C | 55% | 1013.5 hPa | 0 mm | - | - | - |
| 1777254382 | 16.11° C | 54% | 1013.5 hPa | 0 mm | - | - | - |
| 1777253450 | 16.11° C | 53% | 1013.4 hPa | 0 mm | - | - | - |
| 1777252591 | 16.67° C | 52% | 1013.3 hPa | 0 mm | - | - | - |
| 1777251644 | 17.22° C | 51% | 1013.2 hPa | 0 mm | - | - | - |
| 1777250791 | 17.22° C | 51% | 1013.2 hPa | 0 mm | - | - | - |
| 1777249841 | 17.78° C | 50% | 1013.4 hPa | 0 mm | - | - | - |
| 1777248990 | 17.78° C | 51% | 1013.2 hPa | 0 mm | - | - | - |
| 1777248037 | 18.33° C | 50% | 1013.2 hPa | 0 mm | - | - | - |
| 1777247185 | 18.33° C | 49% | 1013.1 hPa | 0 mm | - | - | - |
| 1777246240 | 18.33° C | 48% | 1013.1 hPa | 0 mm | - | - | - |
| 1777245391 | 18.33° C | 49% | 1013 hPa | 0 mm | - | - | - |
| 1777244449 | 18.33° C | 50% | 1012.9 hPa | 0 mm | - | - | - |
| 1777243588 | 18.33° C | 50% | 1012.9 hPa | 0 mm | - | - | - |
| 1777242640 | 18.89° C | 50% | 1013.1 hPa | 0 mm | - | - | - |
* Rain latest hour (hover to see other rain measurements)
** Current wind speed in m/s (hover to see current wind gust speed)